Location: Vancouver
(49.2500°N, 123.1330°W)
Time: 03:08:08
(UTC-07:00)

AO-27 - Visible Passes

Search period start: 26 June 2016 00:00
Search period end: 06 July 2016 00:00
Orbit: 786 x 797 km, 98.8° (Epoch: 24 June)

Date Brightness Start Highest point End Pass type
(mag) Time Alt. Az. Time Alt. Az. Time Alt. Az.
26 Jun 10.0 02:56:57 10° NE 03:00:18 17° E 03:03:36 10° SE visible
27 Jun 8.1 04:06:10 10° NNE 04:11:24 62° ESE 04:16:34 10° S visible
28 Jun 9.0 03:37:24 10° NNE 03:42:14 36° E 03:47:01 10° SSE visible
29 Jun 9.7 03:09:00 10° NE 03:12:57 21° E 03:16:52 10° SE visible
30 Jun 10.2 02:41:36 10° ENE 02:43:32 12° E 02:45:28 10° ESE visible
30 Jun 7.9 04:18:38 10° NNE 04:23:55 77° ESE 04:29:09 10° S visible
01 Jul 8.6 03:49:46 10° NNE 03:54:49 45° E 03:59:49 10° S visible
02 Jul 9.4 03:21:12 10° NE 03:25:35 26° E 03:29:57 10° SSE visible
03 Jul 10.0 02:53:11 10° NE 02:56:14 15° E 02:59:15 10° ESE visible
03 Jul 7.7 04:31:08 10° NNE 04:36:26 85° WNW 04:41:39 10° SSW visible
04 Jul 8.3 04:02:11 10° NNE 04:07:22 57° E 04:12:31 10° S visible
05 Jul 9.1 03:33:28 10° NNE 03:38:12 33° E 03:42:53 10° SSE visible
